星链-30550 (STARLINK-30550 )

导读 | 豆包AI

STARLINK-30550是美国太空探索技术公司SpaceX星链互联网卫星项目中的一颗卫星,于2023年10月9日发射入轨,归属美国。星链系统旨在构建全球卫星互联网星座,该卫星加入星座后,助力提升全球尤其是偏远地区的互联网覆盖能力,推动卫星通信服务的普及与拓展。

基本信息
目录编号:
58045
目录名称:
STARLINK-30550
国际标识:
2023-156T
轨道中心:
EARTH
卫星名称:
星链-30550
卫星全名:
星链-30550 (STARLINK-30550 )
卫星状态:
在轨 (已飞行934 天)
发射日期:
2023-10-09 UTC
国别 :
美国 (US)
星等 :
--
轨道信息
数据来源 国际轨道数据 AOE轨道数据
星历时间 2026-04-30T14:36:05+0800
11小时前
查看轨道信息
2026-04-26T07:00:00+0800
4天前
查看轨道信息
半长轴 6853.408km 6853.37km
偏心率 0.0001323 0.0001432
轨道倾角 53.160° 53.158°
近地点辐角 88.074° 74.439°
升交点赤经 121.741° 141.792°
平近点角 272.041° 252.883°
近地点 474.364km 474.251km
远地点 476.178km 476.215km
周期 94.106分钟 94.106分钟
每日圈数 15.301815 15.301943
详细信息
固有亮度:
5
最大亮度:
0.3
卫星平台:
Starlink v2.0 mini
覆盖范围:
全球
运营商:
太空探索技术公司
运营商所在国:
美国
制造商(研发单位):
太空探索技术公司
制造商所在国:
美国
使用方式:
暂无
卫星简介
星链(Starlink)计划是由太空探索技术公司(SpaceX)提出的一个巨型低轨卫星互联网星座项目,计划在2019年至2024年间在太空搭建由约1.2万颗卫星组成的“星链”网络,其中1584颗将部署在地球上空550千米处的近地轨道,并从2020年开始工作。该卫星仍在工作。
2D轨道图
3D轨道图
轨道高度分析图
轨道倾角分析图
轨道综合分析图
查看轨道综合分析图